This demonstration page uses our WeatherBlox Daily Observations layout. Learn more.

Left ArrowRight Arrow

Hourly Observations for January 3, 2022

Temp ( °F °C ) Dew Point ( °F °C ) Humidity (%) Winds ( mph kmh ) Pressure ( in mb ) Visibility ( mi km ) Precip ( " mm )
12:15 am 00:15 Cloudy 41 5 34 1 76 76 NNE 7 11 30.07 1018 10 16 N/A
12:35 am 00:35 Cloudy with Light Rain 41 5 34 1 76 76 N 10 17 30.08 1019 10 16 N/A
12:55 am 00:55 Cloudy 41 5 34 1 76 76 N 8 13 30.08 1019 10 16 N/A
1:15 am 01:15 Cloudy with Light Rain 39 4 32 undefined 75 75 N 12 19 30.08 1018 10 16 N/A
1:35 am 01:35 Cloudy with Light Rain 39 4 34 1 81 81 N 13 20 30.07 1018 10 16 N/A
1:55 am 01:55 Cloudy with Rain 37 3 34 1 87 87 N 13 20 30.07 1018 7 11 N/A
2:15 am 02:15 Cloudy with Light Rain 36 2 34 1 93 93 N 13 20 30.06 1018 5 8 N/A
2:35 am 02:35 Cloudy with Rain 36 2 34 1 93 93 NNE 6 9 30.07 1018 7 11 N/A
2:55 am 02:55 Cloudy with Light Rain 36 2 34 1 93 93 N 8 13 30.07 1018 5 8 N/A
3:15 am 03:15 Cloudy with Light Snow 36 2 34 1 93 93 NNE 7 11 30.07 1018 4 6 N/A
3:35 am 03:35 Cloudy with Light Snow 34 1 34 1 100 100 N 6 9 30.08 1019 3 4 N/A
3:55 am 03:55 Cloudy with Light Snow 34 1 34 1 100 100 NNE 3 6 30.08 1019 3 4 N/A
4:15 am 04:15 Cloudy with Light Snow 34 1 34 1 100 100 NNE 8 13 30.07 1018 2 3 N/A
4:35 am 04:35 Cloudy with Light Snow 34 1 34 1 100 100 NNE 6 9 30.07 1018 2 2 N/A
4:55 am 04:55 Cloudy with Light Snow 34 1 34 1 100 100 N 6 9 30.08 1019 1 2 N/A
5:15 am 05:15 Cloudy with Light Snow 32 undefined 32 undefined 100 100 NNE 6 9 30.08 1019 1 2 N/A
5:35 am 05:35 Cloudy with Light Snow 32 undefined 32 undefined 100 100 NNE 5 7 30.05 1018 2 2 N/A
5:55 am 05:55 Cloudy with Light Snow 32 undefined 32 undefined 100 100 NNE 7 11 30.06 1018 2 2 N/A
6:15 am 06:15 Cloudy with Light Snow 34 1 34 1 100 100 NE 9 15 30.06 1018 2 3 N/A
6:35 am 06:35 Cloudy with Light Snow 32 undefined 32 undefined 100 100 NNE 10 17 30.08 1019 2 3 N/A
6:55 am 06:55 Cloudy with Light Snow 32 undefined 32 undefined 100 100 NE 10 17 30.08 1019 2 3 N/A
7:15 am 07:15 Cloudy with Light Snow 32 undefined 32 undefined 100 100 NE 10 17 30.10 1019 2 2 N/A
7:35 am 07:35 Cloudy with Light Snow 32 undefined 32 undefined 100 100 NNE 15 24 30.08 1019 1 2 N/A
7:55 am 07:55 Cloudy with Light Snow 32 undefined 32 undefined 100 100 NNE 9 15 30.13 1020 1 2 N/A
8:15 am 08:15 Cloudy with Snow 32 undefined 32 undefined 100 100 NNE 13 20 30.13 1020 1 1 N/A
8:35 am 08:35 Cloudy with Snow 32 undefined 32 undefined 100 100 NNE 20 31 30.09 1019 0 0 N/A
8:55 am 08:55 Cloudy with Light Snow 32 undefined 32 undefined 100 100 NNE 10 17 30.13 1020 1 1 N/A
9:15 am 09:15 Cloudy with Light Snow 32 undefined 32 undefined 100 100 NNE 7 11 30.13 1020 2 2 N/A
9:35 am 09:35 Cloudy with Light Snow 32 undefined 32 undefined 100 100 NNE 9 15 30.13 1020 7 11 N/A
9:55 am 09:55 Cloudy with Light Wintry Mix 32 undefined 30 -1 93 93 N 13 20 30.10 1019 10 16 N/A
10:15 am 10:15 Cloudy 32 undefined 30 -1 93 93 NNE 12 19 30.10 1019 10 16 N/A
10:35 am 10:35 Cloudy 32 undefined 28 -2 87 87 NNE 17 28 30.09 1019 10 16 N/A
11:15 am 11:15 Cloudy 32 undefined 27 -3 80 80 N 10 17 30.11 1020 10 16 N/A
11:35 am 11:35 Cloudy 32 undefined 27 -3 80 80 N 14 22 30.10 1019 10 16 N/A
11:55 am 11:55 Cloudy 30 -1 27 -3 86 86 N 10 17 30.11 1020 10 16 N/A
12:15 pm 12:15 Cloudy 30 -1 27 -3 86 86 NNE 8 13 30.10 1019 10 16 N/A
12:35 pm 12:35 Cloudy 32 undefined 28 -2 87 87 N 8 13 30.10 1019 10 16 N/A
12:55 pm 12:55 Mostly Cloudy 32 undefined 27 -3 80 80 N 13 20 30.07 1018 10 16 N/A
1:15 pm 13:15 Partly Cloudy 32 undefined 25 -4 75 75 N 18 30 30.06 1018 7 11 N/A
1:35 pm 13:35 Sunny 32 undefined 27 -3 80 80 N 13 20 30.07 1018 10 16 N/A
1:55 pm 13:55 Sunny 32 undefined 27 -3 80 80 N 9 15 30.11 1020 10 16 N/A
2:15 pm 14:15 Sunny 32 undefined 25 -4 75 75 N 12 19 30.13 1020 10 16 N/A
2:35 pm 14:35 Sunny 32 undefined 23 -5 69 69 N 8 13 30.14 1021 10 16 N/A
2:55 pm 14:55 Sunny 32 undefined 23 -5 69 69 N 10 17 30.15 1021 10 16 N/A
3:15 pm 15:15 Sunny 32 undefined 23 -5 69 69 N 13 20 30.16 1021 10 16 N/A
3:35 pm 15:35 Sunny 32 undefined 23 -5 69 69 N 7 11 30.17 1022 10 16 N/A
3:55 pm 15:55 Sunny 32 undefined 25 -4 75 75 N 7 11 30.18 1022 10 16 N/A
4:15 pm 16:15 Sunny 32 undefined 23 -5 69 69 N 10 17 30.19 1022 10 16 N/A
4:35 pm 16:35 Sunny 32 undefined 21 -6 64 64 N 10 17 30.20 1023 10 16 N/A
4:55 pm 16:55 Sunny 32 undefined 21 -6 64 64 NNW 8 13 30.21 1023 10 16 N/A
5:15 pm 17:15 Clear 30 -1 23 -5 75 75 N 5 7 30.22 1023 10 16 N/A
5:35 pm 17:35 Clear 32 undefined 21 -6 64 64 N 7 11 30.23 1024 10 16 N/A
5:55 pm 17:55 Clear 32 undefined 21 -6 64 64 N 7 11 30.24 1024 10 16 N/A
6:15 pm 18:15 Clear 30 -1 21 -6 69 69 N 5 7 30.24 1024 10 16 N/A
6:35 pm 18:35 Clear 30 -1 21 -6 69 69 N 6 9 30.25 1025 10 16 N/A
6:55 pm 18:55 Clear 30 -1 21 -6 69 69 N 6 9 30.26 1025 10 16 N/A
7:15 pm 19:15 Clear 28 -2 23 -5 80 80 N 5 7 30.29 1026 10 16 N/A
7:35 pm 19:35 Clear 28 -2 23 -5 80 80 N 6 9 30.29 1026 10 16 N/A
7:55 pm 19:55 Clear 28 -2 23 -5 80 80 NW 8 13 30.30 1026 10 16 N/A
8:15 pm 20:15 Clear 30 -1 23 -5 75 75 NNW 14 22 30.30 1026 10 16 N/A
8:35 pm 20:35 Clear 30 -1 21 -6 69 69 NNW 13 20 30.30 1026 10 16 N/A
8:55 pm 20:55 Clear 30 -1 21 -6 69 69 NNW 12 19 30.31 1027 10 16 N/A
9:15 pm 21:15 Clear 30 -1 21 -6 69 69 NNW 8 13 30.32 1027 10 16 N/A
9:35 pm 21:35 Clear 30 -1 21 -6 69 69 NNW 12 19 30.33 1027 10 16 N/A
9:55 pm 21:55 Clear 30 -1 21 -6 69 69 NW 12 19 30.34 1028 10 16 N/A
10:15 pm 22:15 Clear 28 -2 21 -6 74 74 NNW 7 11 30.35 1028 10 16 N/A
10:35 pm 22:35 Clear 28 -2 21 -6 74 74 NNW 9 15 30.35 1028 10 16 N/A
10:55 pm 22:55 Clear 28 -2 21 -6 74 74 N 7 11 30.36 1028 10 16 N/A
11:15 pm 23:15 Clear 28 -2 21 -6 74 74 NNW 10 17 30.36 1028 10 16 N/A
11:35 pm 23:35 Clear 28 -2 21 -6 74 74 NNW 9 15 30.38 1029 10 16 N/A
11:55 pm 23:55 Clear 28 -2 21 -6 74 74 NNW 10 17 30.38 1029 10 16 N/A

Powered by AerisWeather